Regional Weather Roundup
Issued by NWS Kansas City/Pleasant Hill, MO

Home | Current Version | Previous Version | Graphics & Text | Print | Product List | Glossary Off
Versions: 1 2 3 4 5 6 7 8 9 10 11 12 13 14 15 16 17 18 19 20 21 22 23 24 25 26 27 28 29 30 31 32 33 34 35 36 37 38 39 40 41 42 43 44 45 46 47 48 49 50

000
ASUS43 KEAX 151811
RWREAX

WEATHER ROUNDUP FOR EASTERN KANSAS AND NORTHWEST MISSOURI
NATIONAL WEATHER SERVICE KANSAS CITY/PLEASANT HILL MO
100 PM CDT MON SEP 15 2014

KSZ040-057-103>105-MOZ028-029-037-043-151900-
...KANSAS CITY METROPOLITAN AREA...

CITY           SKY/WX    TMP DP  RH WIND       PRES   REMARKS
K.C. INTL      DRIZZLE   66  63  90 N15       30.12R FOG
6HR MIN TEMP:  62; 6HR MAX TEMP:  68; 6HR PCP:  0.02;

K.C. DOWNTOWN  CLOUDY    69  66  90 NW8       30.10R
6HR MIN TEMP:  64; 6HR MAX TEMP:  71; 6HR PCP: TRACE;

LEES SUMMIT    CLOUDY    69  65  86 NW10      30.10R
6HR MIN TEMP:  61; 6HR MAX TEMP:  71;

OLATHE - IXD   CLOUDY    68  65  90 NW10      30.12R FOG
6HR MIN TEMP:  63; 6HR MAX TEMP:  72;

OLATHE - OJC   CLOUDY    68  65  90 NW10      30.10R FOG
6HR MIN TEMP:  61; 6HR MAX TEMP:  71;

LAWRENCE       LGT RAIN  67  63  87 N10       30.12R FOG

$$

MOZ001>008-011>017-020>025-030>033-038>040-044>046-053-054-151900-
...NORTHERN AND CENTRAL MISSOURI...

CITY           SKY/WX    TMP DP  RH WIND       PRES   REMARKS
ST. JOSEPH     CLOUDY    68  62  81 N13       30.13R
6HR MIN TEMP:  61; 6HR MAX TEMP:  68; 6HR PCP:  0.05;

MOSBY          CLOUDY    68  64  88 NW9       30.10R
WARRENSBURG    CLOUDY    72  64  78 NW5       30.09R
WHITEMAN AFB   LGT RAIN  72  67  85 W2        30.09R
6HR MIN TEMP:  61; 6HR MAX TEMP:  75; 6HR PCP: TRACE;

CLINTON        PTSUNNY   75  68  78 W9        30.09R
SEDALIA        CLOUDY    73  66  78 W7        30.09R
6HR MIN TEMP:  61; 6HR MAX TEMP:  77;

WARSAW         NOT AVBL
MARSHALL       CLOUDY    72  68  88 W8        30.10R FOG
CHILLICOTHE      N/A     64  61  90 CALM      30.11R
6HR MIN TEMP:  61; 6HR MAX TEMP:  64; 6HR PCP:  0.28;

KIRKSVILLE     CLOUDY    62  59  90 NW6       30.09R
6HR MIN TEMP:  58; 6HR MAX TEMP:  62; 6HR PCP:  0.10;


$$

MOZ041-047>049-056>058-063>065-088>090-097-151900-
...EASTERN AND SOUTHERN MISSOURI...

CITY           SKY/WX    TMP DP  RH WIND       PRES   REMARKS
ST. LOUIS INTL CLOUDY    77  63  61 W10       30.06S
6HR MIN TEMP:  63; 6HR MAX TEMP:  78; 6HR PCP: TRACE;

SPIRIT OF STL  PTSUNNY   76  64  66 W13       30.05S
COLUMBIA       CLOUDY    74  66  76 W12       30.07S
JEFFERSON CITY CLOUDY    77  65  66 W9        30.05S
MEXICO         CLOUDY    70  70 100 W7        30.07R FOG
HANNIBAL       CLOUDY    64  61  88 SW5       30.07R FOG
ROLLA          MOSUNNY   78  65  63 SW16      30.07F
LEBANON        SUNNY     81  64  57 W17G26    30.11F
OSAGE BEACH    PTSUNNY   81  64  57 SW17G23   30.08S
SPRINGFIELD    MOSUNNY   81  65  58 SW17G23   30.13S
BRANSON        PTSUNNY   73  66  78 W7        30.18S
JOPLIN         SUNNY     80  67  64 SW15G22   30.13F
WEST PLAINS    CLOUDY    72  63  73 SW10      30.16F

$$

IAZ060-094-KSZ022-034>040-054-083-096-NEZ052-066-093-151900-
...KANSAS...SOUTHEAST NEBRASKA AND IOWA...

CITY           SKY/WX    TMP DP  RH WIND       PRES   REMARKS
TOPEKA         CLOUDY    69  64  84 N13       30.14R
6HR MIN TEMP:  66; 6HR MAX TEMP:  72; 6HR PCP: TRACE;

MANHATTAN      CLOUDY    65  59  81 N14G21    30.17R
EMPORIA        CLOUDY    76  65  68 NW10      30.12R
CHANUTE        MOSUNNY   84  65  52 W20G26    30.09F
WICHITA        PTSUNNY   81  62  52 NW13      30.11R
OMAHA          PTSUNNY   63  49  60 N14       30.22R
LINCOLN        PTSUNNY   63  49  60 N23       30.24R
FALLS CITY     CLOUDY    65  55  70 N14       30.17R
LAMONI         CLOUDY    57  55  93 N16       30.14R FOG
DES MOINES     PTSUNNY   59  50  72 N12       30.16R

$$



USA.gov is the U.S. government's official web portal to all federal, state and local government web resources and services.